Meteo pe oră la Ablaevo

Astăzi, 5 August, Joi

Timp Temperatura Precipitaţii Vânt Presiune Umiditate
00:00 +27°C° 0 mm 4 m/s 743 mmHg 42%
01:00 +27°C° 0 mm 4 m/s 743 mmHg 41%
02:00 +25°C° 0 mm 4 m/s 743 mmHg 55%
03:00 +22°C° 0 mm 4 m/s 743 mmHg 69%
04:00 +21°C° 0 mm 4 m/s 743 mmHg 80%
05:00 +21°C° 0.2 mm 4 m/s 743 mmHg 82%
06:00 +21°C° 0.2 mm 3 m/s 744 mmHg 85%
07:00 +21°C° 0.2 mm 2 m/s 744 mmHg 87%
08:00 +24°C° 0 mm 3 m/s 744 mmHg 79%
09:00 +25°C° 0 mm 3 m/s 744 mmHg 71%
10:00 +27°C° 0 mm 4 m/s 745 mmHg 64%
11:00 +28°C° 0 mm 4 m/s 745 mmHg 57%
12:00 +29°C° 0 mm 5 m/s 744 mmHg 49%
13:00 +30°C° 0 mm 5 m/s 744 mmHg 42%
14:00 +30°C° 0 mm 5 m/s 744 mmHg 41%
15:00 +30°C° 0 mm 5 m/s 744 mmHg 39%
16:00 +30°C° 0 mm 5 m/s 744 mmHg 37%
17:00 +28°C° 0 mm 5 m/s 744 mmHg 41%
18:00 +27°C° 0 mm 6 m/s 745 mmHg 44%
19:00 +26°C° 0 mm 6 m/s 745 mmHg 47%
20:00 +25°C° 0 mm 5 m/s 745 mmHg 53%
21:00 +22°C° 0 mm 5 m/s 745 mmHg 59%
22:00 +21°C° 0 mm 4 m/s 746 mmHg 65%
23:00 +20°C° 0 mm 3 m/s 746 mmHg 71%

Mâine, 6 August, Vineri

Timp Temperatura Precipitaţii Vânt Presiune Umiditate
00:00 +18°C° 0 mm 3 m/s 746 mmHg 77%
01:00 +17°C° 0 mm 3 m/s 746 mmHg 83%
02:00 +16°C° 0 mm 3 m/s 746 mmHg 86%
03:00 +16°C° 0 mm 3 m/s 746 mmHg 90%
04:00 +14°C° 0 mm 3 m/s 747 mmHg 93%
05:00 +16°C° 0 mm 3 m/s 747 mmHg 89%
06:00 +17°C° 0 mm 3 m/s 747 mmHg 84%
07:00 +18°C° 0 mm 3 m/s 747 mmHg 80%
08:00 +19°C° 0 mm 3 m/s 748 mmHg 71%
09:00 +21°C° 0 mm 3 m/s 748 mmHg 62%
10:00 +22°C° 0 mm 4 m/s 748 mmHg 54%
11:00 +25°C° 0 mm 4 m/s 748 mmHg 45%
12:00 +26°C° 0 mm 5 m/s 748 mmHg 37%
13:00 +27°C° 0 mm 6 m/s 747 mmHg 29%
14:00 +27°C° 0 mm 6 m/s 747 mmHg 27%
15:00 +27°C° 0 mm 6 m/s 747 mmHg 25%
16:00 +28°C° 0 mm 6 m/s 747 mmHg 23%
17:00 +26°C° 0 mm 5 m/s 748 mmHg 25%
18:00 +25°C° 0 mm 5 m/s 748 mmHg 28%
19:00 +23°C° 0 mm 4 m/s 748 mmHg 30%
20:00 +21°C° 0 mm 3 m/s 748 mmHg 37%
21:00 +19°C° 0 mm 3 m/s 748 mmHg 44%
22:00 +17°C° 0 mm 2 m/s 748 mmHg 51%
23:00 +16°C° 0 mm 2 m/s 748 mmHg 54%

Poimâine, 7 August, Sâmbătă

Timp Temperatura Precipitaţii Vânt Presiune Umiditate
00:00 +15°C° 0 mm 1 m/s 749 mmHg 57%
01:00 +15°C° 0 mm 1 m/s 749 mmHg 61%
02:00 +14°C° 0 mm 1 m/s 749 mmHg 64%
03:00 +14°C° 0 mm 1 m/s 749 mmHg 67%
04:00 +13°C° 0 mm 1 m/s 749 mmHg 71%
05:00 +14°C° 0 mm 1 m/s 749 mmHg 65%
06:00 +16°C° 0 mm 1 m/s 750 mmHg 59%
07:00 +18°C° 0 mm 1 m/s 750 mmHg 54%
08:00 +19°C° 0 mm 2 m/s 750 mmHg 48%
09:00 +21°C° 0 mm 2 m/s 750 mmHg 42%
10:00 +24°C° 0 mm 3 m/s 750 mmHg 36%
11:00 +23°C° 0 mm 4 m/s 750 mmHg 34%
12:00 +25°C° 0 mm 4 m/s 750 mmHg 32%
13:00 +26°C° 0 mm 5 m/s 750 mmHg 30%
14:00 +26°C° 0 mm 5 m/s 750 mmHg 31%
15:00 +26°C° 0 mm 5 m/s 749 mmHg 31%
16:00 +26°C° 0 mm 5 m/s 749 mmHg 32%
17:00 +25°C° 0 mm 5 m/s 749 mmHg 35%
18:00 +23°C° 0 mm 4 m/s 749 mmHg 38%
19:00 +22°C° 0 mm 4 m/s 750 mmHg 41%
20:00 +20°C° 0 mm 3 m/s 750 mmHg 47%
21:00 +18°C° 0 mm 3 m/s 750 mmHg 54%
22:00 +16°C° 0 mm 2 m/s 750 mmHg 60%
23:00 +15°C° 0 mm 1 m/s 750 mmHg 62%

8 August, Duminică

Timp Temperatura Precipitaţii Vânt Presiune Umiditate
00:00 +15°C° 0 mm 1 m/s 750 mmHg 64%
01:00 +14°C° 0 mm 1 m/s 750 mmHg 67%
02:00 +14°C° 0 mm 1 m/s 750 mmHg 68%
03:00 +14°C° 0 mm 1 m/s 751 mmHg 70%
04:00 +13°C° 0 mm 1 m/s 751 mmHg 71%
05:00 +15°C° 0 mm 1 m/s 751 mmHg 66%
06:00 +16°C° 0 mm 1 m/s 751 mmHg 61%
07:00 +19°C° 0 mm 1 m/s 752 mmHg 56%
08:00 +19°C° 0 mm 2 m/s 752 mmHg 50%
09:00 +21°C° 0 mm 2 m/s 752 mmHg 44%
10:00 +24°C° 0 mm 3 m/s 752 mmHg 38%
11:00 +25°C° 0 mm 3 m/s 751 mmHg 34%
12:00 +27°C° 0 mm 4 m/s 751 mmHg 31%
13:00 +28°C° 0 mm 4 m/s 751 mmHg 28%
14:00 +28°C° 0 mm 4 m/s 751 mmHg 27%
15:00 +29°C° 0 mm 4 m/s 751 mmHg 26%
16:00 +29°C° 0 mm 4 m/s 751 mmHg 26%
17:00 +28°C° 0 mm 4 m/s 751 mmHg 28%
18:00 +27°C° 0 mm 4 m/s 751 mmHg 30%
19:00 +26°C° 0 mm 3 m/s 751 mmHg 32%
20:00 +24°C° 0 mm 3 m/s 751 mmHg 38%
21:00 +21°C° 0 mm 3 m/s 751 mmHg 43%
22:00 +18°C° 0 mm 3 m/s 751 mmHg 48%
23:00 +18°C° 0 mm 2 m/s 752 mmHg 52%

9 August, Luni

Timp Temperatura Precipitaţii Vânt Presiune Umiditate
00:00 +17°C° 0 mm 2 m/s 752 mmHg 55%
01:00 +16°C° 0 mm 1 m/s 752 mmHg 59%
02:00 +15°C° 0 mm 1 m/s 752 mmHg 60%
03:00 +15°C° 0 mm 1 m/s 752 mmHg 61%
04:00 +15°C° 0 mm 1 m/s 752 mmHg 62%
05:00 +16°C° 0 mm 1 m/s 752 mmHg 58%
06:00 +18°C° 0 mm 1 m/s 752 mmHg 54%
07:00 +19°C° 0 mm 1 m/s 752 mmHg 50%
08:00 +20°C° 0 mm 2 m/s 752 mmHg 45%
09:00 +23°C° 0 mm 2 m/s 752 mmHg 40%
10:00 +24°C° 0 mm 2 m/s 752 mmHg 35%
11:00 +26°C° 0 mm 2 m/s 752 mmHg 32%
12:00 +27°C° 0 mm 2 m/s 752 mmHg 29%
13:00 +28°C° 0 mm 2 m/s 752 mmHg 26%
14:00 +29°C° 0 mm 2 m/s 751 mmHg 26%
15:00 +30°C° 0 mm 2 m/s 751 mmHg 25%
16:00 +30°C° 0 mm 2 m/s 751 mmHg 25%
17:00 +30°C° 0 mm 2 m/s 751 mmHg 28%
18:00 +29°C° 0 mm 2 m/s 751 mmHg 31%
19:00 +28°C° 0 mm 2 m/s 751 mmHg 34%
20:00 +26°C° 0 mm 2 m/s 751 mmHg 40%
21:00 +24°C° 0 mm 2 m/s 751 mmHg 47%
22:00 +20°C° 0 mm 2 m/s 751 mmHg 54%
23:00 +20°C° 0 mm 2 m/s 750 mmHg 57%

10 August, Marţi

Timp Temperatura Precipitaţii Vânt Presiune Umiditate
00:00 +20°C° 0 mm 1 m/s 750 mmHg 59%
01:00 +20°C° 0 mm 1 m/s 750 mmHg 62%
02:00 +19°C° 0 mm 1 m/s 750 mmHg 63%
03:00 +19°C° 0 mm 1 m/s 750 mmHg 65%
04:00 +19°C° 0 mm 1 m/s 750 mmHg 66%
05:00 +20°C° 0 mm 1 m/s 750 mmHg 61%
06:00 +22°C° 0 mm 1 m/s 750 mmHg 56%
07:00 +23°C° 0 mm 1 m/s 750 mmHg 52%
08:00 +25°C° 0 mm 1 m/s 749 mmHg 46%
09:00 +27°C° 0 mm 1 m/s 749 mmHg 40%
10:00 +29°C° 0 mm 1 m/s 749 mmHg 34%
11:00 +31°C° 0 mm 1 m/s 749 mmHg 31%
12:00 +32°C° 0 mm 1 m/s 748 mmHg 28%
13:00 +31°C° 0 mm 0 m/s 748 mmHg 25%
14:00 +32°C° 0 mm 0 m/s 748 mmHg 24%
15:00 +32°C° 0 mm 0 m/s 747 mmHg 24%
16:00 +32°C° 0 mm 0 m/s 747 mmHg 23%
17:00 +33°C° 0 mm 1 m/s 747 mmHg 26%
18:00 +31°C° 0 mm 1 m/s 747 mmHg 30%
19:00 +29°C° 0 mm 1 m/s 746 mmHg 34%
20:00 +28°C° 0 mm 2 m/s 746 mmHg 37%
21:00 +27°C° 0 mm 2 m/s 746 mmHg 41%
22:00 +26°C° 0 mm 2 m/s 746 mmHg 45%
23:00 +25°C° 0 mm 2 m/s 746 mmHg 48%
Arată mai mult

Formular de consimțământ

Meteoprog și furnizorii noștri de servicii pot stoca și accesa date personale, precum cookies, identificatori de dispozitiv sau alte tehnologii similare pe dispozitivul dumneavoastră și procesa astfel de date pentru a personaliza conținutul și reclamele, dar și pentru a oferi caracteristici de social media și pentru a analiza traficul.

  • Stocarea și/sau accesarea informațiilor pe dispozitivul dumneavoastră

    Cookies, identificatori de dispozitiv sau alte informații pot fi stocate sau accesate pe dispozitiv în scopurile indicate mai sus.

  • Reclame și conținut personalizat, evaluarea reclamelor și a conținutului, informații despre audiențe și dezvoltarea produselor

    Reclamele și conținutul pot fi personalizate pe baza unui profil. Pot fi adăugate date suplimentare pentru a personaliza mai bine reclamele și conținutul. Performanța reclamelor și conținutului poate fi măsurată. Pot fi obținute informații despre utilizatorii care au văzut reclamele și conținutul. Aceste date pot fi utilizate pentru a dezvolta sau îmbunătăți experiența utilizatorilor, sistemele și software-ul.

Dând clic pe ‘Sunt de acord’, permiteți utilizarea cookie-urilor menționate, a identificatorilor de dispozitiv, balizelor web sau altor tehnologii similare. Setările pot fi modificate din browser-ul dispozitivului dumneavoastră.

În anumite scopuri, interesele legitime pot prima asupra consimțământului. Puteți citi mai multe informații în acest sens în Politica privind Confidențialitatea Datelor și Cookie.